Tracking 17145 objects as of 29-May-2015
HD Live streaming from Space Station

INSAT 1C

Track INSAT 1C now!
INSAT 1C is classified as:


NORAD ID: 19330
Int'l Code: 1988-063A
Perigee: 35,759.0 km
Apogee: 35,837.2 km
Inclination: 15.0 °
Period: 1,436.3 minutes
Semi major axis: 42169 km
RCS: 1.9952 m2 (large)
Launch date: July 21, 1988
Source: India (IND)
Your satellite tracking list
Your tracking list is empty





NASA's NSSDC Master Catalog

Two Line Element Set (TLE):
1 19330U 88063A   15149.05932839 -.00000267  00000-0  00000+0 0  9995
2 19330 014.9645 004.2174 0009270 082.8960 273.2043 01.00256195 79743

Source of the keplerian elements: AFSPC

N2YO: 353